Weather in Gweru

Zimbabwe     19°28′36″S   29°47′48″E
temp.,
°C
wind,
m/s
gust,
m/s
humid.,
%
clouds,
%
prec.,
mm/h
press.,
hPa
HPBL,
m
18 april, sun
sun1823:00+10ese41184100 0.0 1025447
02:00+8ese412890 0.0 1024376
05:00+7ese5129617 0.0 1025464
08:00+11ese5108122 0.0 1026513
11:00+18ese55450 0.0 10241061
14:00+22se44320 0.0 10201584
17:00+19se46410 0.0 1020580
20:00+13se411580 0.0 1023329
19 april, mon
mon1923:00+11se411720 0.0 1023240
02:00+9ese26820 0.0 1023117
05:00+8e23860 0.0 102367
08:00+14ese35650 0.0 1023368
11:00+20sse33383 0.0 10211269
14:00+23sse33275 0.0 10171707
17:00+20sse46355 0.0 1018333
20:00+14se411520 0.0 1021218
20 april, tue
tue2023:00+12ese3106425 0.0 1022209
02:00+11ese397083 0.0 1021192
05:00+10ese31077100 0.0 1021212
08:00+14ese5106399 0.0 1023619
11:00+18ese6742100 0.0 10221245
14:00+22se5534100 0.0 10181882
17:00+20se474397 0.0 1019830
20:00+15se512584 0.0 1022470
21 april, wed
wed2123:00+13se613652 0.0 1022523
02:00+12ese613710 0.0 1022532
05:00+10ese512936 0.0 1023431
08:00+13ese5108793 0.0 1024468
11:00+20ese44510 0.0 10221029
14:00+23sse32380 0.0 10171943
17:00+21sse46450 0.0 1018496
20:00+16se512584 0.0 1020425
22 april, thu
thu2223:00+13se311730 0.0 1021263
02:00+11ese39820 0.0 1021174
05:00+11ese36830 0.0 1021108
08:00+16ese34600 0.0 1021313
11:00+23sse33380 0.0 10191605
14:00+25s33292 0.0 10162513
17:00+22sse473515 0.0 1015352
20:00+15se411435 0.0 1019206